Location: Oklahoma City
(35.4680°N, 97.5160°W)
Time: 15:46:38
(UTC-06:00)

ISS - All Passes

Search period start: 03 December 2016 00:00
Search period end: 13 December 2016 00:00
Orbit: 401 x 410 km, 51.6° (Epoch: 04 December)

Date Brightness Start Highest point End Pass type
(mag) Time Alt. Az. Time Alt. Az. Time Alt. Az.
03 Dec - 00:02:07 10° NNW 00:04:52 24° NNE 00:07:36 10° E night (unlit)
03 Dec - 01:38:25 10° WNW 01:41:22 30° SW 01:44:19 10° SSE night (unlit)
03 Dec - 16:39:52 10° SSW 16:42:50 32° SE 16:45:49 10° ENE daylight
03 Dec - 18:16:42 10° W 18:19:22 23° NNW 18:22:04 10° NNE visible
03 Dec - 23:10:43 10° N 23:12:44 15° NNE 23:14:44 10° ENE night (unlit)
04 Dec - 00:46:15 10° NW 00:49:32 68° SW 00:52:48 10° SE night (unlit)
04 Dec - 15:49:00 10° SSE 15:51:04 16° SE 15:53:08 10° E daylight
04 Dec - 17:24:11 10° WSW 17:27:18 40° NW 17:30:27 10° NE daylight
04 Dec - 22:20:08 10° NNE 22:20:30 10° NNE 22:20:52 10° NNE night (unlit)
04 Dec - 23:54:20 10° NW 23:57:36 55° NE 00:00:51 10° ESE night (unlit)
05 Dec - 01:32:37 10° WSW 01:33:43 11° SW 01:34:49 10° SW night (unlit)
05 Dec - 16:32:03 10° SW 16:35:19 83° NW 16:38:37 10° NE daylight
05 Dec - 18:10:48 10° NW 18:12:16 12° NNW 18:13:44 10° N visible
05 Dec - 23:02:37 10° NNW 23:05:34 29° NE 23:08:30 10° E night (unlit)
06 Dec - 00:39:17 10° WNW 00:41:58 23° SW 00:44:38 10° S night (unlit)
06 Dec - 15:40:18 10° SSW 15:43:25 43° SE 15:46:34 10° ENE daylight
06 Dec - 17:17:38 10° WNW 17:20:04 19° NNW 17:22:30 10° NNE daylight
06 Dec - 22:11:06 10° NNW 22:13:26 18° NNE 22:15:46 10° ENE night (unlit)
06 Dec - 23:46:55 10° WNW 23:50:07 49° SW 23:53:19 10° SSE night (unlit)
07 Dec - 14:49:04 10° S 14:51:35 21° SE 14:54:07 10° E daylight
07 Dec - 16:24:58 10° W 16:27:56 31° NW 16:30:55 10° NNE daylight
07 Dec - 21:19:55 10° N 21:21:12 12° NNE 21:22:28 10° NE night (unlit)
07 Dec - 22:54:52 10° NW 22:58:11 75° NE 23:01:29 10° SE night (unlit)
08 Dec - 15:32:38 10° WSW 15:35:52 62° NW 15:39:08 10° NE daylight
08 Dec - 17:12:10 10° NW 17:12:56 11° NNW 17:13:42 10° N daylight
08 Dec - 22:03:03 10° NNW 22:06:09 36° NE 22:09:14 10° ESE night (unlit)
08 Dec - 23:40:08 10° W 23:42:25 18° SW 23:44:42 10° S night (unlit)
09 Dec - 14:40:41 10° SW 14:43:54 60° SE 14:47:08 10° NE daylight
09 Dec - 16:18:33 10° WNW 16:20:39 16° NNW 16:22:46 10° NNE daylight
09 Dec - 21:11:24 10° NNW 21:14:01 21° NNE 21:16:37 10° E night (unlit)
09 Dec - 22:47:30 10° WNW 22:50:35 36° SW 22:53:38 10° SSE night (unlit)
10 Dec - 13:49:11 10° S 13:52:00 27° SE 13:54:50 10° ENE daylight
10 Dec - 15:25:40 10° W 15:28:27 25° NNW 15:31:15 10° NNE daylight
10 Dec - 20:20:00 10° N 20:21:46 14° NNE 20:23:33 10° ENE night (unlit)
10 Dec - 21:55:20 10° NW 21:58:38 81° SW 22:01:56 10° SE night (unlit)
11 Dec - 12:58:30 10° SSE 13:00:09 13° SE 13:01:48 10° E daylight
11 Dec - 14:33:09 10° WSW 14:36:19 46° NW 14:39:31 10° NE daylight
11 Dec - 21:03:23 10° NW 21:06:35 47° NE 21:09:47 10° ESE night (unlit)
11 Dec - 22:41:04 10° W 22:42:46 13° SW 22:44:27 10° SSW night (unlit)
12 Dec - 13:41:01 10° SW 13:44:17 82° SE 13:47:33 10° NE daylight
12 Dec - 15:19:25 10° WNW 15:21:09 13° NNW 15:22:52 10° N daylight
12 Dec - 20:11:38 10° NNW 20:14:27 25° NE 20:17:17 10° E night (unlit)
12 Dec - 21:48:03 10° WNW 21:50:55 27° SW 21:53:45 10° S night (unlit)
